BEL7GZ EBBR-EDDH

Flight info

Callsign BEL7GZ
Flight time 0h 55m
Altitude 31000
Route NIK L191 VICOT N873 ANDIK/N0448F310 M105 RIBSO
Aircraft A320/M-DE3FGHIJ1LORVWY/H

Departure

Time 2026-05-06 15:53
Airport Brussels Airport (EBBR)

Arrival

Time 2026-05-06 16:49
Airport Hamburg Helmut Schmidt Airport (EDDH)
Time Latitude Longitude Altitude Speed Heading
2026-05-06 15:06 50.90361 4.48882 121 ft 0 kts 335°
2026-05-06 15:43 50.90360 4.48882 121 ft 2 kts 335°
2026-05-06 15:43 50.90346 4.48893 117 ft 2 kts 335°
2026-05-06 15:43 50.90331 4.48904 117 ft 2 kts 335°
2026-05-06 15:44 50.90316 4.48915 119 ft 2 kts 335°
2026-05-06 15:44 50.90300 4.48923 120 ft 2 kts
2026-05-06 15:44 50.90285 4.48915 120 ft 2 kts 59°
2026-05-06 15:44 50.90277 4.48892 121 ft 2 kts 67°
2026-05-06 15:45 50.90275 4.48885 121 ft 0 kts 66°
2026-05-06 15:47 50.90277 4.48890 121 ft 1 kts 66°
2026-05-06 15:47 50.90297 4.48961 123 ft 11 kts 65°
2026-05-06 15:47 50.90330 4.49079 121 ft 13 kts 65°
2026-05-06 15:48 50.90369 4.49212 122 ft 14 kts 65°
2026-05-06 15:48 50.90413 4.49361 121 ft 16 kts 65°
2026-05-06 15:48 50.90449 4.49488 123 ft 12 kts 65°
2026-05-06 15:48 50.90493 4.49601 121 ft 13 kts 33°
2026-05-06 15:49 50.90583 4.49638 124 ft 14 kts 14°
2026-05-06 15:49 50.90671 4.49677 120 ft 10 kts 15°
2026-05-06 15:49 50.90739 4.49706 123 ft 9 kts 15°
2026-05-06 15:49 50.90808 4.49736 120 ft 11 kts 15°
2026-05-06 15:50 50.90883 4.49768 122 ft 9 kts 15°
2026-05-06 15:50 50.90947 4.49818 121 ft 11 kts 39°
2026-05-06 15:50 50.90997 4.49880 120 ft 5 kts 35°
2026-05-06 15:50 50.91002 4.49885 119 ft 1 kts 33°
2026-05-06 15:51 50.91008 4.49891 119 ft 1 kts 29°
2026-05-06 15:51 50.91019 4.49897 119 ft 2 kts 21°
2026-05-06 15:51 50.91031 4.49905 119 ft 0 kts 24°
2026-05-06 15:52 50.91041 4.49912 119 ft 6 kts 24°
2026-05-06 15:52 50.91092 4.49946 118 ft 9 kts 19°
2026-05-06 15:52 50.91142 4.49906 118 ft 10 kts 281°
2026-05-06 15:52 50.91081 4.49681 117 ft 51 kts 246°
2026-05-06 15:53 50.90833 4.48829 119 ft 116 kts 245°
2026-05-06 15:53 50.90418 4.47396 127 ft 167 kts 244°
2026-05-06 15:53 50.89910 4.45691 646 ft 169 kts 248°
2026-05-06 15:53 50.89614 4.43929 1307 ft 166 kts 284°
2026-05-06 15:54 50.90183 4.42440 1927 ft 161 kts 326°
2026-05-06 15:54 50.91220 4.41500 2284 ft 183 kts 333°
2026-05-06 15:54 50.92412 4.40470 2637 ft 206 kts 333°
2026-05-06 15:54 50.93739 4.39304 3025 ft 230 kts 332°
2026-05-06 15:55 50.95197 4.38003 3561 ft 248 kts 332°
2026-05-06 15:55 50.96695 4.36649 4413 ft 253 kts 331°
2026-05-06 15:55 50.98234 4.35249 5303 ft 256 kts 331°
2026-05-06 15:55 50.99790 4.33828 6194 ft 260 kts 330°
2026-05-06 15:56 51.01366 4.32382 7024 ft 264 kts 330°
2026-05-06 15:56 51.02964 4.30910 7850 ft 268 kts 330°
2026-05-06 15:56 51.04590 4.29408 8679 ft 272 kts 330°
2026-05-06 15:56 51.06240 4.27884 9486 ft 277 kts 330°
2026-05-06 15:57 51.07922 4.26332 10189 ft 284 kts 330°
2026-05-06 15:57 51.09705 4.24687 10444 ft 307 kts 329°
2026-05-06 15:57 51.11622 4.22912 10642 ft 330 kts 329°
2026-05-06 15:57 51.13653 4.21026 11066 ft 343 kts 329°
2026-05-06 15:58 51.15728 4.19100 11742 ft 348 kts 329°
2026-05-06 15:58 51.17746 4.16938 12424 ft 351 kts 323°
2026-05-06 15:58 51.19719 4.14621 13129 ft 354 kts 323°
2026-05-06 15:58 51.21716 4.12268 13707 ft 358 kts 323°
2026-05-06 15:59 51.23723 4.09902 13880 ft 360 kts 323°
2026-05-06 15:59 51.25827 4.07706 14481 ft 363 kts 332°
2026-05-06 15:59 51.28176 4.06175 15110 ft 367 kts 343°
2026-05-06 15:59 51.30701 4.05424 15699 ft 373 kts 354°
2026-05-06 16:00 51.33303 4.05326 16291 ft 377 kts 358°
2026-05-06 16:00 51.35941 4.05282 16876 ft 380 kts 358°
2026-05-06 16:00 51.38599 4.05238 17464 ft 384 kts 358°
2026-05-06 16:00 51.41247 4.05192 18041 ft 387 kts 358°
2026-05-06 16:01 51.43953 4.05143 18558 ft 391 kts 358°
2026-05-06 16:01 51.46690 4.05298 19049 ft 396 kts
2026-05-06 16:01 51.49396 4.06197 19550 ft 401 kts 16°
2026-05-06 16:01 51.52002 4.07863 20036 ft 406 kts 24°
2026-05-06 16:02 51.54575 4.09785 20513 ft 409 kts 24°
2026-05-06 16:02 51.57175 4.11721 20984 ft 413 kts 23°
2026-05-06 16:02 51.59795 4.13664 21435 ft 417 kts 23°
2026-05-06 16:02 51.62437 4.15625 21887 ft 420 kts 23°
2026-05-06 16:03 51.65103 4.17608 22323 ft 424 kts 23°
2026-05-06 16:03 51.67793 4.19610 22757 ft 427 kts 24°
2026-05-06 16:03 51.70502 4.21632 23184 ft 430 kts 23°
2026-05-06 16:03 51.73197 4.23641 23586 ft 433 kts 24°
2026-05-06 16:04 51.75952 4.25700 23941 ft 436 kts 24°
2026-05-06 16:04 51.78712 4.27770 24289 ft 438 kts 24°
2026-05-06 16:04 51.81494 4.29861 24637 ft 440 kts 24°
2026-05-06 16:04 51.84276 4.31948 24974 ft 442 kts 24°
2026-05-06 16:05 51.87048 4.34030 25307 ft 445 kts 24°
2026-05-06 16:05 51.89869 4.36155 25634 ft 447 kts 24°
2026-05-06 16:05 51.92694 4.38293 25955 ft 449 kts 24°
2026-05-06 16:05 51.95533 4.40444 26274 ft 451 kts 24°
2026-05-06 16:06 51.98386 4.42610 26584 ft 454 kts 24°
2026-05-06 16:06 52.01153 4.44713 26884 ft 456 kts 24°
2026-05-06 16:06 52.04026 4.46898 27166 ft 458 kts 24°
2026-05-06 16:06 52.06934 4.49115 27459 ft 460 kts 24°
2026-05-06 16:07 52.09819 4.51311 27723 ft 462 kts 24°
2026-05-06 16:07 52.12741 4.53538 28001 ft 464 kts 24°
2026-05-06 16:07 52.15670 4.55774 28248 ft 466 kts 24°
2026-05-06 16:07 52.18606 4.58024 28491 ft 468 kts 24°
2026-05-06 16:08 52.21560 4.60285 28728 ft 469 kts 24°
2026-05-06 16:08 52.24518 4.62549 28959 ft 471 kts 24°
2026-05-06 16:08 52.27491 4.64826 29224 ft 472 kts 24°
2026-05-06 16:08 52.30464 4.67108 29549 ft 471 kts 24°
2026-05-06 16:09 52.33427 4.69393 29877 ft 471 kts 25°
2026-05-06 16:09 52.36353 4.71656 30185 ft 470 kts 25°
2026-05-06 16:09 52.39307 4.73941 30465 ft 469 kts 24°
2026-05-06 16:09 52.42260 4.76227 30744 ft 469 kts 24°
2026-05-06 16:10 52.45209 4.78512 30893 ft 469 kts 25°
2026-05-06 16:10 52.48151 4.80797 30922 ft 468 kts 25°
2026-05-06 16:10 52.53734 4.86222 30921 ft 468 kts 39°
2026-05-06 16:11 52.58174 4.94004 30923 ft 468 kts 52°
2026-05-06 16:11 52.62204 5.02426 30919 ft 469 kts 52°
2026-05-06 16:12 52.66243 5.10856 30915 ft 469 kts 52°
2026-05-06 16:12 52.70277 5.19301 30907 ft 469 kts 52°
2026-05-06 16:13 52.73975 5.28113 30907 ft 467 kts 64°
2026-05-06 16:13 52.76334 5.38075 30903 ft 466 kts 71°
2026-05-06 16:14 52.78506 5.48163 30899 ft 466 kts 71°
2026-05-06 16:14 52.80681 5.58250 30899 ft 466 kts 72°
2026-05-06 16:15 52.82836 5.68356 30901 ft 466 kts 72°
2026-05-06 16:15 52.84977 5.78470 30901 ft 466 kts 72°
2026-05-06 16:16 52.87109 5.88572 30899 ft 465 kts 72°
2026-05-06 16:16 52.89219 5.98622 30899 ft 465 kts 72°
2026-05-06 16:17 52.91336 6.08727 30899 ft 465 kts 72°
2026-05-06 16:17 52.93445 6.18845 30899 ft 464 kts 73°
2026-05-06 16:18 52.95544 6.28984 30905 ft 465 kts 73°
2026-05-06 16:18 52.97630 6.39122 30900 ft 465 kts 73°
2026-05-06 16:19 52.99719 6.49278 30905 ft 465 kts 73°
2026-05-06 16:19 53.01797 6.59438 30904 ft 465 kts 73°
2026-05-06 16:20 53.03852 6.69620 30907 ft 465 kts 73°
2026-05-06 16:20 53.05905 6.79814 30896 ft 465 kts 73°
2026-05-06 16:21 53.07960 6.90015 30896 ft 465 kts 73°
2026-05-06 16:21 53.10001 7.00220 30891 ft 465 kts 73°
2026-05-06 16:22 53.12024 7.10450 30888 ft 465 kts 73°
2026-05-06 16:22 53.14044 7.20692 30886 ft 466 kts 73°
2026-05-06 16:23 53.16062 7.30950 30894 ft 466 kts 73°
2026-05-06 16:23 53.18063 7.41223 30889 ft 466 kts 73°
2026-05-06 16:24 53.19645 7.49348 30887 ft 466 kts 73°
2026-05-06 16:24 53.21641 7.59649 30885 ft 467 kts 73°
2026-05-06 16:25 53.23629 7.69964 30881 ft 467 kts 73°
2026-05-06 16:25 53.24623 7.75129 30660 ft 468 kts 73°
2026-05-06 16:25 53.25613 7.80300 30406 ft 468 kts 73°
2026-05-06 16:26 53.26602 7.85481 30163 ft 468 kts 74°
2026-05-06 16:26 53.27588 7.90655 29907 ft 468 kts 73°
2026-05-06 16:26 53.28570 7.95840 29619 ft 468 kts 74°
2026-05-06 16:26 53.29550 8.01041 29326 ft 469 kts 74°
2026-05-06 16:27 53.30529 8.06243 29040 ft 468 kts 74°
2026-05-06 16:27 53.31491 8.11360 28752 ft 454 kts 74°
2026-05-06 16:27 53.32422 8.16330 28483 ft 442 kts 73°
2026-05-06 16:27 53.33383 8.21141 28200 ft 431 kts 71°
2026-05-06 16:28 53.34422 8.25791 27919 ft 421 kts 70°
2026-05-06 16:28 53.35489 8.30273 27763 ft 409 kts 69°
2026-05-06 16:28 53.36548 8.34641 27450 ft 401 kts 69°
2026-05-06 16:28 53.37585 8.38943 26853 ft 396 kts 69°
2026-05-06 16:29 53.38592 8.43210 26255 ft 392 kts 69°
2026-05-06 16:29 53.39247 8.46034 25855 ft 390 kts 70°
2026-05-06 16:29 53.40210 8.50256 25264 ft 386 kts 70°
2026-05-06 16:29 53.41215 8.54411 24687 ft 383 kts 67°
2026-05-06 16:30 53.42288 8.58479 24109 ft 380 kts 66°
2026-05-06 16:30 53.43022 8.61136 23728 ft 378 kts 65°
2026-05-06 16:30 53.44506 8.66435 22921 ft 374 kts 65°
2026-05-06 16:30 53.45600 8.70366 22305 ft 370 kts 65°
2026-05-06 16:31 53.46671 8.74269 21741 ft 366 kts 65°
2026-05-06 16:31 53.47722 8.78149 21196 ft 363 kts 66°
2026-05-06 16:31 53.48756 8.81992 20679 ft 360 kts 66°
2026-05-06 16:31 53.49776 8.85809 20181 ft 357 kts 66°
2026-05-06 16:32 53.50786 8.89597 19678 ft 354 kts 66°
2026-05-06 16:32 53.51788 8.93358 19144 ft 351 kts 66°
2026-05-06 16:32 53.52824 8.97033 18628 ft 347 kts 60°
2026-05-06 16:32 53.54173 9.00382 18145 ft 345 kts 50°
2026-05-06 16:33 53.55811 9.03242 17709 ft 343 kts 40°
2026-05-06 16:33 53.57699 9.05649 17263 ft 340 kts 34°
2026-05-06 16:33 53.59627 9.07944 16844 ft 338 kts 34°
2026-05-06 16:34 53.63442 9.12516 16024 ft 334 kts 34°
2026-05-06 16:34 53.65323 9.14777 15631 ft 332 kts 34°
2026-05-06 16:34 53.67205 9.17038 15239 ft 330 kts 34°
2026-05-06 16:34 53.69066 9.19273 14856 ft 328 kts 34°
2026-05-06 16:35 53.70920 9.21502 14491 ft 326 kts 34°
2026-05-06 16:35 53.72764 9.23725 14109 ft 324 kts 35°
2026-05-06 16:35 53.74584 9.25920 13569 ft 320 kts 34°
2026-05-06 16:35 53.76390 9.28102 12922 ft 317 kts 34°
2026-05-06 16:36 53.78016 9.30571 12301 ft 314 kts 53°
2026-05-06 16:36 53.78987 9.33834 11692 ft 311 kts 76°
2026-05-06 16:36 53.79166 9.37433 11081 ft 307 kts 98°
2026-05-06 16:36 53.78551 9.40839 10467 ft 302 kts 121°
2026-05-06 16:37 53.77357 9.43644 10116 ft 296 kts 136°
2026-05-06 16:37 53.75675 9.45671 9834 ft 292 kts 159°
2026-05-06 16:37 53.73722 9.46359 9555 ft 286 kts 184°
2026-05-06 16:37 53.71850 9.45628 9378 ft 271 kts 208°
2026-05-06 16:38 53.70305 9.44030 9255 ft 259 kts 212°
2026-05-06 16:38 53.68609 9.43222 9076 ft 254 kts 181°
2026-05-06 16:38 53.66862 9.43578 8968 ft 254 kts 169°
2026-05-06 16:38 53.65150 9.44345 8805 ft 254 kts 165°
2026-05-06 16:39 53.63457 9.45207 8642 ft 254 kts 165°
2026-05-06 16:39 53.61763 9.46048 8482 ft 253 kts 165°
2026-05-06 16:39 53.60069 9.46842 8317 ft 252 kts 166°
2026-05-06 16:39 53.58373 9.47590 8157 ft 251 kts 167°
2026-05-06 16:40 53.56681 9.48300 8004 ft 250 kts 167°
2026-05-06 16:40 53.54991 9.48989 7883 ft 249 kts 167°
2026-05-06 16:40 53.53305 9.49664 7649 ft 248 kts 167°
2026-05-06 16:40 53.51630 9.50329 7337 ft 247 kts 167°
2026-05-06 16:41 53.50019 9.51285 6998 ft 245 kts 151°
2026-05-06 16:41 53.48635 9.52933 6659 ft 244 kts 139°
2026-05-06 16:41 53.47347 9.54765 6301 ft 240 kts 139°
2026-05-06 16:41 53.46102 9.56523 5913 ft 235 kts 138°
2026-05-06 16:42 53.45131 9.58626 5545 ft 225 kts 109°
2026-05-06 16:42 53.44924 9.61086 5365 ft 207 kts 81°
2026-05-06 16:42 53.45382 9.63313 5156 ft 201 kts 56°
2026-05-06 16:42 53.46262 9.65152 4913 ft 199 kts 50°
2026-05-06 16:43 53.47139 9.66887 4650 ft 197 kts 50°
2026-05-06 16:43 53.48018 9.68637 4382 ft 195 kts 50°
2026-05-06 16:43 53.48890 9.70378 4110 ft 193 kts 50°
2026-05-06 16:43 53.49733 9.72064 3871 ft 182 kts 50°
2026-05-06 16:44 53.50503 9.73605 3608 ft 162 kts 50°
2026-05-06 16:44 53.51192 9.74985 3416 ft 148 kts 50°
2026-05-06 16:44 53.51826 9.76254 3222 ft 138 kts 50°
2026-05-06 16:44 53.52438 9.77482 3032 ft 137 kts 50°
2026-05-06 16:45 53.53046 9.78700 2847 ft 135 kts 50°
2026-05-06 16:45 53.53648 9.79908 2657 ft 135 kts 50°
2026-05-06 16:45 53.54249 9.81115 2479 ft 134 kts 50°
2026-05-06 16:45 53.54848 9.82318 2289 ft 134 kts 50°
2026-05-06 16:46 53.55446 9.83518 2104 ft 134 kts 50°
2026-05-06 16:46 53.56042 9.84717 1921 ft 133 kts 51°
2026-05-06 16:46 53.56638 9.85915 1745 ft 133 kts 51°
2026-05-06 16:46 53.57229 9.87105 1558 ft 132 kts 51°
2026-05-06 16:47 53.57821 9.88296 1373 ft 132 kts 51°
2026-05-06 16:47 53.58403 9.89468 1189 ft 133 kts 51°
2026-05-06 16:47 53.58994 9.90658 1011 ft 131 kts 50°
2026-05-06 16:47 53.59582 9.91845 828 ft 134 kts 50°
2026-05-06 16:48 53.60177 9.93043 641 ft 133 kts 50°
2026-05-06 16:48 53.60772 9.94244 476 ft 134 kts 51°
2026-05-06 16:48 53.61371 9.95453 274 ft 135 kts 51°
2026-05-06 16:48 53.61968 9.96665 90 ft 134 kts 50°
2026-05-06 16:49 53.62512 9.97760 41 ft 99 kts 50°
2026-05-06 16:49 53.62849 9.98445 44 ft 60 kts 50°
2026-05-06 16:49 53.63085 9.98922 46 ft 46 kts 50°
2026-05-06 16:49 53.63254 9.99268 47 ft 30 kts 56°
2026-05-06 16:50 53.63288 9.99555 47 ft 19 kts 100°
2026-05-06 16:50 53.63280 9.99630 48 ft 0 kts 99°
2026-05-06 16:52 53.63274 9.99695 48 ft 12 kts 92°
2026-05-06 16:52 53.63316 9.99841 48 ft 13 kts 48°
2026-05-06 16:52 53.63373 9.99949 48 ft 11 kts 50°
2026-05-06 16:52 53.63417 10.00040 46 ft 8 kts 52°
2026-05-06 16:53 53.63430 10.00111 48 ft 5 kts 96°
2026-05-06 16:53 53.63419 10.00147 48 ft 3 kts 125°
2026-05-06 16:53 53.63410 10.00183 47 ft 4 kts 104°
2026-05-06 16:53 53.63410 10.00248 48 ft 4 kts 86°
2026-05-06 16:54 53.63411 10.00273 48 ft 4 kts 86°
2026-05-06 16:54 53.63413 10.00335 48 ft 0 kts 86°